Theta_e
307 307 307 307 307 307 307 307 307 307 308 308 308 309 309 309 308 308 309 309 312 315 314 314 316 315 314 323 323 322 321 321 320 321 321 324 324 325 325 325 327 329 331 347 347
307 307 307 307 307 307 307 307 307 307 307 308 308 308 308 308 307 308 307 308 309 309 315 316 316 320 316 318 324 324 323 320 321 322 322 323 324 324 322 322 323 324 326 343 345
306 306 307 307 307 307 307 307 307 308 308 308 308 308 307 307 310 312 313 312 313 314 312 314 316 315 320 317 319 324 324 321 320 322 323 323 323 324 322 321 321 321 323 336 343
306 306 306 306 306 307 307 307 307 308 308 308 308 308 307 308 308 321 312 310 311 315 314 313 315 317 316 320 319 320 323 322 322 322 322 323 324 323 322 322 322 322 324 330 336
305 306 306 306 306 307 306 306 307 307 308 308 308 308 309 310 311 308 308 310 315 316 316 317 317 317 318 317 321 319 321 323 322 321 321 322 322 322 322 322 323 323 323 323 333
305 306 306 305 306 306 306 306 307 306 307 309 309 308 309 312 309 309 308 308 309 314 317 319 320 319 319 319 321 322 321 323 322 321 321 321 321 321 321 322 322 322 322 322 326
304 304 305 305 306 307 307 307 305 304 303 308 310 310 310 311 309 309 309 309 308 309 315 317 318 321 320 320 320 321 322 323 323 322 321 321 320 320 320 321 322 322 322 321 322
304 304 304 304 304 306 306 305 302 303 304 305 311 311 312 310 310 310 310 310 309 309 310 310 316 319 322 320 320 321 322 323 323 323 322 320 320 320 320 321 321 321 321 321 322
304 302 301 303 305 305 306 302 304 308 308 307 311 312 315 311 311 311 310 311 309 309 309 311 312 316 321 321 321 322 324 323 322 322 322 320 319 321 321 321 322 322 321 321 322
303 300 302 303 305 306 304 307 311 310 311 310 311 314 314 313 311 310 309 310 312 313 310 311 314 315 319 323 322 322 323 324 323 323 322 322 321 320 321 321 322 322 322 322 323
303 300 301 303 304 303 305 310 312 313 313 313 312 313 312 311 310 311 311 310 309 311 316 310 313 319 317 322 320 321 321 321 322 322 323 323 322 320 322 321 322 322 323 322 323
300 300 301 303 302 303 307 313 311 310 311 311 311 311 310 310 311 312 311 309 309 311 314 310 311 314 316 319 322 321 321 322 322 322 323 324 322 322 322 322 323 323 323 324 324
300 300 302 303 303 309 312 311 310 309 311 312 312 312 311 312 312 313 312 312 311 311 312 312 312 311 316 317 321 323 322 323 324 323 322 323 322 323 322 323 322 324 324 325 324
300 301 302 303 309 311 313 309 310 309 313 317 313 313 313 313 314 314 312 312 312 309 311 314 313 310 313 317 319 323 322 322 324 325 325 323 323 325 324 323 323 324 324 325 324
300 301 303 302 307 312 310 310 311 310 323 315 314 312 313 314 313 316 313 313 314 313 310 317 316 314 311 313 317 321 321 322 323 325 326 324 323 326 325 325 324 324 324 325 325
301 303 305 309 310 311 309 310 313 320 319 315 313 313 314 316 317 317 315 313 313 315 314 314 313 314 311 311 313 319 321 322 323 326 329 325 323 324 326 326 326 325 324 325 325
301 305 306 308 311 309 310 314 321 319 314 315 314 314 316 318 316 319 319 315 318 319 316 314 312 312 315 316 313 315 321 326 326 329 332 326 324 326 327 326 326 325 324 325 325
304 309 310 311 310 311 312 319 320 315 314 313 314 315 318 315 315 315 317 321 315 316 321 316 313 312 315 317 318 315 320 329 327 333 331 328 327 327 326 328 326 325 324 325 325
306 312 312 310 311 312 317 319 317 317 314 314 316 315 315 314 314 315 317 317 318 314 321 317 316 310 313 315 318 315 318 324 325 325 325 327 327 330 330 328 326 325 325 325 326
306 312 313 310 312 313 317 316 315 312 312 315 319 316 316 315 315 316 318 318 317 317 317 320 322 312 313 316 317 318 319 325 328 327 327 325 330 333 335 333 328 328 332 334 338
311 314 311 311 312 313 319 313 312 312 312 314 317 317 316 316 314 315 319 317 314 315 317 317 323 313 315 318 321 319 321 324 326 326 329 328 330 335 337 336 338 339 337 336 336
312 313 310 311 314 313 313 312 311 311 312 312 315 315 315 314 316 315 318 317 314 315 318 320 323 323 314 318 319 320 321 325 330 330 326 331 337 333 338 338 337 336 338 338 339
313 311 308 311 315 314 312 312 312 311 312 314 313 314 315 314 315 316 316 315 316 315 316 320 323 324 321 318 319 324 322 322 327 329 328 331 341 336 337 335 333 333 335 336 335
312 309 310 311 312 313 314 313 312 311 312 312 314 314 316 317 315 317 316 316 315 316 318 317 320 326 319 317 320 324 322 320 327 330 329 331 341 337 335 334 334 333 333 333 333
308 308 309 311 312 313 313 313 313 313 311 313 314 315 316 316 318 317 317 317 316 317 317 320 324 322 322 320 321 320 322 322 323 325 331 336 337 335 334 333 332 330 328 328 328
307 307 307 309 312 312 312 313 313 312 313 316 315 314 316 317 317 317 318 319 319 317 316 319 326 325 324 324 322 320 321 323 322 323 328 335 335 330 328 327 327 327 326 326 325
306 305 306 309 311 312 312 312 312 313 313 314 314 315 316 315 315 316 317 318 318 319 321 316 325 326 325 322 324 323 324 324 322 327 332 338 332 327 327 326 325 324 324 324 322
Wind_Speed
21 21 21 21 22 22 22 22 22 21 21 21 20 22 24 25 30 28 25 26 18 19 25 22 21 18 24 22 23 23 17 20 29 26 20 22 22 7 4 2 7 13 10 16 17
21 22 22 23 24 24 25 24 24 24 23 22 22 22 22 25 30 32 37 32 35 31 23 20 19 18 18 19 21 23 18 32 24 23 23 20 22 15 9 8 13 16 9 20 13
21 22 23 24 26 26 26 26 26 26 25 24 22 20 20 21 20 6 5 10 10 27 31 28 25 21 25 24 25 27 29 23 27 26 24 21 21 15 12 15 16 19 14 14 14
22 23 24 25 26 27 28 28 28 27 27 26 23 21 18 13 9 4 7 21 13 6 18 24 23 25 27 29 28 28 32 29 26 22 23 20 17 15 13 15 14 19 19 19 15
24 25 26 28 30 31 33 33 32 30 27 25 23 19 14 12 29 35 43 25 8 9 20 20 23 25 31 28 27 33 31 29 28 27 25 22 19 15 13 16 13 8 19 16 17
27 28 29 30 32 34 35 36 35 34 29 24 21 14 11 21 16 14 20 24 28 22 22 21 21 24 24 31 30 29 29 29 25 28 25 24 14 15 18 15 16 13 9 11 11
30 32 34 35 36 36 37 39 37 30 29 23 16 12 13 28 18 25 22 29 26 24 22 27 27 24 22 27 29 28 29 28 28 27 24 22 20 24 20 18 15 18 12 9 10
31 34 36 38 38 38 40 40 32 31 28 20 12 12 9 20 18 20 13 23 27 25 29 28 30 26 27 21 29 29 30 24 29 29 26 17 27 22 20 18 19 16 14 13 14
33 37 39 42 41 40 41 32 34 27 20 13 7 13 13 8 15 18 8 12 16 23 27 28 25 25 24 24 21 28 24 35 28 28 24 26 20 20 23 19 17 16 15 17 19
34 39 40 45 42 38 31 31 26 26 9 11 19 9 22 12 14 13 12 10 5 10 20 24 20 21 21 20 21 33 33 30 28 27 25 28 25 20 20 25 21 18 19 17 17
35 41 44 43 36 28 29 20 16 5 4 19 24 21 26 34 27 17 14 19 2 10 19 24 17 21 30 30 27 26 25 28 25 26 23 25 24 23 17 20 21 20 17 18 16
39 43 48 42 27 24 18 7 16 10 15 21 22 22 31 30 23 19 13 9 6 13 20 20 22 28 28 30 31 30 29 25 25 26 27 24 24 22 23 17 19 20 19 18 16
44 48 45 38 24 15 14 17 15 11 7 13 11 11 14 8 15 19 10 15 11 13 17 20 28 29 30 31 30 30 28 25 24 27 24 20 19 22 23 22 16 18 19 20 18
46 50 41 30 13 18 13 19 10 9 4 8 6 5 12 5 9 12 5 5 18 21 20 14 25 29 29 28 31 28 29 26 26 18 17 23 15 19 21 22 17 16 17 17 18
50 47 31 9 16 9 21 17 10 3 5 7 11 10 18 22 13 12 9 7 13 20 18 10 19 28 31 30 29 27 29 28 28 17 21 21 14 18 21 21 22 17 14 18 17
51 40 24 12 13 15 23 18 4 4 6 12 22 22 23 21 14 7 7 7 2 8 20 25 23 19 25 30 30 25 27 30 25 18 15 19 16 19 22 27 21 19 18 16 19
49 30 19 12 10 26 18 5 5 9 19 19 30 31 21 16 12 6 4 2 4 3 12 16 24 23 20 19 30 30 22 16 15 13 10 22 20 13 23 22 22 20 18 16 17
45 21 12 13 21 18 13 5 8 21 18 25 29 27 2 22 18 9 11 13 14 10 3 10 16 26 17 19 17 31 23 8 22 12 18 21 20 20 12 19 23 21 17 15 16
39 15 12 13 16 15 8 4 9 14 21 24 23 17 19 22 15 14 13 2 2 10 5 9 14 20 21 18 23 30 23 23 15 18 15 18 16 13 5 17 22 22 18 17 14
29 16 6 17 16 15 6 3 9 15 21 17 7 8 18 19 17 18 8 6 10 10 7 6 7 19 21 15 20 23 23 21 14 21 16 21 18 12 14 12 20 20 17 15 18
12 5 14 23 16 9 9 10 15 17 20 11 9 15 15 12 10 8 5 4 6 8 10 2 6 16 17 12 18 15 14 17 18 14 12 10 17 18 20 17 18 18 15 14 17
10 7 14 15 7 9 11 14 11 18 20 12 9 10 3 7 6 7 11 3 3 8 8 5 4 10 22 15 17 18 18 23 11 20 4 5 8 22 25 22 19 16 15 17 17
9 10 16 14 6 10 10 9 16 19 20 7 9 7 4 4 7 12 12 12 6 13 3 5 3 5 11 18 19 10 22 19 22 12 13 5 1 8 22 18 18 20 19 16 16
6 7 6 8 7 12 13 14 18 16 17 13 16 11 18 9 8 10 16 11 19 9 11 1 3 11 10 13 10 20 19 26 22 10 2 4 8 12 17 19 18 20 20 20 17
7 6 10 6 11 18 14 18 21 19 8 15 5 13 22 9 8 5 17 20 11 2 5 8 8 14 13 16 18 18 22 19 23 21 7 12 15 15 15 17 20 17 20 21 19
6 5 6 14 15 17 15 20 23 24 18 9 12 24 21 18 11 24 22 20 4 2 4 4 4 11 10 7 9 16 19 18 24 16 11 21 14 16 16 13 16 19 20 18 18
11 10 5 12 13 13 14 21 24 21 10 20 19 20 22 21 23 25 21 22 14 5 2 3 5 3 6 13 12 5 20 17 14 16 13 18 15 19 17 16 17 18 18 19 18
Wind_Direction
349 345 341 338 334 330 327 322 318 315 313 312 312 315 316 315 312 300 271 255 261 272 258 268 271 226 225 241 226 228 239 241 241 239 243 261 266 191 27 259 267 272 245 106 120
346 341 338 334 330 327 323 319 316 313 311 310 311 313 315 318 310 287 272 266 257 253 247 240 242 225 219 223 232 223 227 237 241 249 253 249 261 242 172 211 243 253 230 120 137
342 338 335 332 328 325 321 317 315 312 309 309 308 308 311 319 300 246 51 14 310 242 235 242 243 251 232 221 219 229 234 232 242 254 256 255 243 245 188 209 221 229 206 147 153
342 337 333 328 324 321 318 316 313 310 307 306 304 303 301 303 268 115 23 326 328 206 224 232 237 239 240 228 222 227 234 238 249 237 250 263 278 247 205 224 208 227 203 170 169
338 334 331 328 325 320 318 316 312 306 302 299 297 298 296 256 247 266 290 283 278 237 219 226 229 232 234 233 228 231 231 230 237 257 270 277 246 251 214 221 233 238 209 209 167
337 334 331 329 323 319 316 314 309 306 302 293 291 289 256 257 277 302 289 267 270 252 230 224 232 226 244 236 230 232 236 237 228 232 242 253 233 246 255 243 205 232 234 193 175
338 335 332 331 325 318 314 312 307 302 302 299 285 261 251 249 281 290 288 280 269 251 249 249 238 251 234 247 239 240 244 231 234 233 243 230 238 227 231 233 204 218 203 222 225
335 334 332 329 327 319 313 310 304 299 301 295 272 242 250 264 265 281 281 277 261 264 267 252 257 251 250 243 245 233 239 238 222 227 230 223 239 222 223 228 224 207 194 212 230
334 335 337 333 327 321 316 311 304 297 293 265 242 216 264 229 224 267 238 293 277 248 266 268 236 248 242 239 233 237 222 228 223 215 217 216 231 232 208 221 216 194 205 220 221
333 336 336 335 325 322 318 315 313 302 275 230 241 230 235 257 323 308 290 232 267 301 252 253 247 227 237 222 217 215 216 220 223 216 207 223 232 231 232 204 210 208 207 226 212
333 338 338 332 325 325 325 322 1 308 269 296 300 258 279 285 293 301 296 266 236 255 261 224 243 224 218 229 229 218 221 222 222 221 223 214 225 216 227 214 199 205 213 212 217
338 340 340 330 323 318 305 300 350 318 310 287 268 263 265 269 270 278 312 254 264 258 256 226 226 247 217 228 227 234 221 219 219 217 215 217 216 219 224 237 203 196 201 206 207
340 342 336 328 322 311 278 358 351 4 284 306 295 274 309 291 297 291 293 316 208 219 252 240 221 228 237 215 223 228 233 226 218 220 202 210 208 222 223 218 216 198 193 199 198
339 341 336 329 312 319 323 337 12 4 299 280 15 328 300 273 293 300 138 186 279 232 233 237 254 221 235 232 217 220 226 235 241 204 212 189 209 206 222 207 199 190 191 185 191
340 340 331 324 294 306 336 336 6 317 343 47 355 300 284 270 261 218 199 171 235 272 242 219 252 234 214 227 234 221 213 227 237 240 221 191 215 206 213 207 186 185 194 184 181
339 339 330 333 253 285 328 325 290 282 346 1 341 330 330 322 330 29 179 181 6 285 279 260 239 262 210 215 235 234 212 217 230 241 214 191 195 232 189 210 186 184 184 188 175
338 334 312 292 291 326 328 346 306 7 353 343 335 331 331 326 353 209 242 162 202 216 252 250 240 234 250 264 211 230 233 197 205 223 185 212 192 231 204 195 188 184 177 192 171
336 329 301 258 308 331 305 310 309 359 347 333 332 319 336 10 340 318 273 281 216 221 288 229 216 221 213 239 228 214 222 210 193 171 206 219 222 223 267 209 182 171 176 176 162
338 327 274 352 331 319 299 338 4 349 329 331 322 336 342 344 345 337 335 304 251 200 235 222 251 193 200 216 214 211 215 201 217 191 205 186 194 86 70 160 167 154 175 167 157
329 303 321 340 323 293 328 23 320 354 334 333 310 332 327 338 338 335 327 37 348 7 257 325 270 193 191 204 250 234 194 200 231 188 213 191 151 147 135 103 137 132 111 99 92
303 279 24 347 322 337 38 350 336 340 330 330 295 305 312 321 313 308 334 307 15 315 311 324 283 190 180 190 219 208 228 204 220 225 209 181 170 154 141 126 100 97 100 113 117
306 340 19 351 24 8 13 339 320 343 334 330 292 321 297 304 290 296 287 227 187 344 315 221 307 256 186 199 219 202 221 203 202 224 312 355 150 152 137 139 137 131 115 105 103
311 314 10 355 20 352 342 321 340 353 336 335 316 320 304 275 305 284 322 329 99 347 259 354 259 235 235 190 207 188 221 197 229 233 215 148 120 311 109 121 135 142 128 126 127
296 355 354 308 6 339 331 336 340 353 328 324 310 310 312 302 278 285 292 311 323 301 278 235 264 262 209 198 192 194 255 204 213 230 252 16 154 113 124 138 148 131 141 146 133
7 14 15 311 330 309 328 350 345 337 327 321 288 310 323 307 293 265 315 309 324 49 309 187 238 233 240 223 210 182 222 215 207 219 171 154 142 139 139 138 131 122 114 117 113
353 353 335 295 300 332 12 346 340 340 336 333 314 323 316 310 310 309 311 305 290 259 4 323 282 218 203 138 243 194 218 236 234 200 202 157 140 136 133 129 122 120 121 116 115
358 336 322 291 339 344 348 346 338 339 307 326 330 320 318 320 311 297 283 274 250 261 192 284 301 250 180 148 194 248 224 215 203 108 166 159 138 135 135 135 129 125 122 123 121